SINAH 1

Last updated on Wed Sep 17 2025 00:02:30 GMT+0000 (Coordinated Universal Time)

1 28893U 05043D 25259.60186762 .00000389 00000+0 83830-4 0 9996 2 28893 98.2499 27.9877 0015524 56.3951 303.8730 14.63809273 60495
UTC large
Height (km)
Speed (km/s)
/
Latitude / Longitude
Inclination (degrees)
Orbital Period (minutes)
Azimuth
Elevation
Range (km)
Doppler Factor

Next 0 passes for location: London (51.5072 / 0.1276)

Sorry there are no passes over London.